| time (UTC) | temp F | wind direction | speed knots | gust knots | rain 1hr in | rain 24hr in | rain mn in | humidity % | barometer mb |
| 20260504050504 | 48 | 311 | 0.0 | 0.0 | 0.00 | 0.00 | 0.00 | 56 | 1003.6 |
| 20260504050005 | 48 | 311 | 0.0 | 0.0 | 0.00 | 0.00 | 0.00 | 56 | 1003.7 |
| 20260504045503 | 48 | 311 | 0.0 | 0.0 | 0.00 | 0.00 | 0.00 | 55 | 1003.7 |
| 20260504045003 | 49 | 311 | 0.0 | 0.0 | 0.00 | 0.00 | 0.00 | 55 | 1003.6 |
| 20260504044510 | 49 | 311 | 0.0 | 0.0 | 0.00 | 0.00 | 0.00 | 55 | 1003.7 |
| 20260504044004 | 49 | 311 | 0.0 | 0.0 | 0.00 | 0.00 | 0.00 | 54 | 1003.8 |
| 20260504043503 | 49 | 311 | 0.0 | 0.0 | 0.00 | 0.00 | 0.00 | 54 | 1003.8 |
| 20260504043009 | 49 | 311 | 0.0 | 0.0 | 0.00 | 0.00 | 0.00 | 54 | 1003.9 |
| 20260504042503 | 50 | 311 | 0.0 | 0.0 | 0.00 | 0.00 | 0.00 | 53 | 1004.0 |
| 20260504042003 | 50 | 311 | 0.0 | 0.0 | 0.00 | 0.00 | 0.00 | 53 | 1004.0 |
| 20260504041507 | 50 | 311 | 0.0 | 0.0 | 0.00 | 0.00 | 0.00 | 53 | 1004.2 |
| 20260504041005 | 50 | 311 | 0.0 | 0.0 | 0.00 | 0.00 | 0.00 | 52 | 1004.2 |
| 20260504040505 | 51 | 311 | 0.0 | 0.0 | 0.00 | 0.00 | 0.00 | 52 | 1004.3 |
| 20260504040003 | 51 | 311 | 0.0 | 0.0 | 0.00 | 0.00 | 0.00 | 51 | 1004.4 |
| 20260504035503 | 51 | 311 | 0.0 | 0.0 | 0.00 | 0.00 | 0.00 | 51 | 1004.5 |
| 20260504035006 | 52 | 311 | 0.0 | 0.0 | 0.00 | 0.00 | 0.00 | 50 | 1004.6 |
| 20260504034502 | 52 | 311 | 0.0 | 0.0 | 0.00 | 0.00 | 0.00 | 50 | 1004.6 |
| 20260504034002 | 52 | 311 | 0.0 | 0.0 | 0.00 | 0.00 | 0.00 | 49 | 1004.7 |
| 20260504033503 | 53 | 311 | 0.0 | 0.0 | 0.00 | 0.00 | 0.00 | 49 | 1004.6 |
| 20260504033006 | 53 | 311 | 0.0 | 0.0 | 0.00 | 0.00 | 0.00 | 48 | 1004.6 |
| 20260504032503 | 53 | 311 | 0.0 | 0.0 | 0.00 | 0.00 | 0.00 | 48 | 1004.7 |
| 20260504032005 | 54 | 311 | 0.0 | 0.0 | 0.00 | 0.00 | 0.00 | 47 | 1004.8 |
| 20260504031509 | 54 | 311 | 0.0 | 0.9 | 0.00 | 0.00 | 0.00 | 46 | 1005.0 |
| 20260504031003 | 54 | 311 | 0.0 | 0.9 | 0.00 | 0.00 | 0.00 | 46 | 1005.0 |
| 20260504030503 | 55 | 311 | 0.0 | 0.9 | 0.00 | 0.00 | 0.00 | 46 | 1005.1 |
| 20260504030030 | 55 | 311 | 0.0 | 0.0 | 0.00 | 0.00 | 0.00 | 46 | 1005.2 |
| 20260504025512 | 55 | 311 | 0.0 | 0.0 | 0.00 | 0.00 | 0.00 | 45 | 1005.2 |
| 20260504025002 | 56 | 311 | 0.0 | 0.0 | 0.00 | 0.00 | 0.00 | 45 | 1005.3 |
| 20260504024509 | 56 | 311 | 0.0 | 0.0 | 0.00 | 0.00 | 0.00 | 45 | 1005.1 |
| 20260504024003 | 56 | 311 | 0.0 | 0.0 | 0.00 | 0.00 | 0.00 | 44 | 1005.2 |
| 20260504023506 | 57 | 311 | 0.0 | 0.0 | 0.00 | 0.00 | 0.00 | 43 | 1005.2 |
| 20260504023003 | 57 | 311 | 0.0 | 0.0 | 0.00 | 0.00 | 0.00 | 42 | 1005.1 |
| 20260504022502 | 57 | 311 | 0.0 | 0.0 | 0.00 | 0.00 | 0.00 | 42 | 1005.1 |
| 20260504022003 | 58 | 311 | 0.0 | 0.0 | 0.00 | 0.00 | 0.00 | 41 | 1005.1 |
| 20260504021504 | 58 | 311 | 0.0 | 0.0 | 0.00 | 0.00 | 0.00 | 40 | 1005.1 |
| 20260504021004 | 59 | 311 | 0.0 | 0.0 | 0.00 | 0.00 | 0.00 | 40 | 1005.1 |
| 20260504020505 | 59 | 311 | 0.0 | 0.0 | 0.00 | 0.00 | 0.00 | 39 | 1005.1 |
| 20260504020008 | 59 | 311 | 0.0 | 0.0 | 0.00 | 0.00 | 0.00 | 39 | 1005.0 |
| 20260504015503 | 60 | 311 | 0.0 | 0.0 | 0.00 | 0.00 | 0.00 | 39 | 1005.1 |
| 20260504015004 | 60 | 311 | 0.0 | 0.0 | 0.00 | 0.00 | 0.00 | 38 | 1005.0 |
| 20260504014531 | 61 | 311 | 0.0 | 0.0 | 0.00 | 0.00 | 0.00 | 37 | 1005.0 |
| 20260504014008 | 61 | 311 | 0.0 | 0.0 | 0.00 | 0.00 | 0.00 | 36 | 1004.9 |
| 20260504013503 | 62 | 311 | 0.0 | 0.0 | 0.00 | 0.00 | 0.00 | 36 | 1004.9 |
| 20260504013013 | 63 | 311 | 0.0 | 0.0 | 0.00 | 0.00 | 0.00 | 35 | 1004.9 |
| 20260504012508 | 63 | 311 | 0.0 | 0.0 | 0.00 | 0.00 | 0.00 | 34 | 1004.9 |
| 20260504012003 | 64 | 311 | 0.0 | 0.0 | 0.00 | 0.00 | 0.00 | 33 | 1004.9 |
| 20260504011508 | 64 | 311 | 0.0 | 0.0 | 0.00 | 0.00 | 0.00 | 33 | 1004.9 |
| 20260504011007 | 65 | 311 | 0.0 | 0.0 | 0.00 | 0.00 | 0.00 | 32 | 1004.9 |
| 20260504010503 | 65 | 311 | 0.0 | 0.9 | 0.00 | 0.00 | 0.00 | 32 | 1004.9 |
| 20260504010004 | 65 | 311 | 0.0 | 0.9 | 0.00 | 0.00 | 0.00 | 31 | 1004.8 |
| 20260504005503 | 66 | 311 | 0.0 | 0.9 | 0.00 | 0.00 | 0.00 | 31 | 1004.8 |
| 20260504005006 | 66 | 306 | 0.0 | 1.7 | 0.00 | 0.00 | 0.00 | 31 | 1004.8 |
| 20260504004510 | 66 | 306 | 0.0 | 2.6 | 0.00 | 0.00 | 0.00 | 30 | 1004.9 |
| 20260504004006 | 66 | 308 | 0.0 | 4.3 | 0.00 | 0.00 | 0.00 | 30 | 1004.9 |
| 20260504003507 | 67 | 360 | 0.0 | 4.3 | 0.00 | 0.00 | 0.00 | 30 | 1004.9 |
| 20260504003026 | 67 | 304 | 0.0 | 3.5 | 0.00 | 0.00 | 0.00 | 30 | 1004.9 |
| 20260504002506 | 67 | 317 | 0.9 | 3.5 | 0.00 | 0.00 | 0.00 | 29 | 1004.9 |
| 20260504002007 | 67 | 5 | 0.0 | 1.7 | 0.00 | 0.00 | 0.00 | 29 | 1005.0 |
| 20260504001517 | 68 | 352 | 0.0 | 3.5 | 0.00 | 0.00 | 0.00 | 28 | 1005.0 |
| 20260504001007 | 68 | 265 | 0.9 | 4.3 | 0.00 | 0.00 | 0.00 | 28 | 1005.0 |
| 20260504000503 | 68 | 16 | 0.9 | 5.2 | 0.00 | 0.00 | 0.00 | 28 | 1005.0 |
| 20260504000020 | 68 | 306 | 0.9 | 5.2 | 0.00 | 0.00 | 0.00 | 28 | 1005.0 |
| 20260503235509 | 68 | 37 | 0.9 | 4.3 | 0.00 | 0.00 | 0.00 | 28 | 1005.0 |
| 20260503235005 | 68 | 338 | 0.9 | 5.2 | 0.00 | 0.00 | 0.00 | 29 | 1005.0 |
| 20260503234525 | 68 | 284 | 0.9 | 6.1 | 0.00 | 0.00 | 0.00 | 30 | 1004.9 |
| 20260503234004 | 69 | 304 | 0.9 | 7.0 | 0.00 | 0.00 | 0.00 | 29 | 1005.0 |
| 20260503233504 | 69 | 255 | 1.7 | 7.0 | 0.00 | 0.00 | 0.00 | 28 | 1005.1 |
| 20260503233012 | 69 | 340 | 2.6 | 7.0 | 0.00 | 0.00 | 0.00 | 27 | 1005.1 |
| 20260503232507 | 69 | 344 | 0.0 | 4.3 | 0.00 | 0.00 | 0.00 | 27 | 1005.1 |
| 20260503232006 | 69 | 342 | 0.9 | 7.8 | 0.00 | 0.00 | 0.00 | 27 | 1005.1 |
| 20260503231512 | 70 | 40 | 0.9 | 7.8 | 0.00 | 0.00 | 0.00 | 26 | 1005.3 |
| 20260503231007 | 70 | 334 | 2.6 | 7.8 | 0.00 | 0.00 | 0.00 | 26 | 1005.3 |
| 20260503230508 | 71 | 310 | 1.7 | 7.8 | 0.00 | 0.00 | 0.00 | 25 | 1005.2 |
| 20260503230020 | 71 | 261 | 0.9 | 7.8 | 0.00 | 0.00 | 0.00 | 25 | 1005.2 |
| 20260503225509 | 71 | 39 | 1.7 | 6.1 | 0.00 | 0.00 | 0.00 | 25 | 1005.1 |
| 20260503225005 | 72 | 112 | 0.9 | 4.3 | 0.00 | 0.00 | 0.00 | 25 | 1005.0 |
| 20260503224521 | 72 | 352 | 0.9 | 6.1 | 0.00 | 0.00 | 0.00 | 26 | 1005.0 |
| 20260503224009 | 72 | 237 | 1.7 | 6.1 | 0.00 | 0.00 | 0.00 | 26 | 1004.9 |
| 20260503223506 | 73 | 313 | 1.7 | 7.0 | 0.00 | 0.00 | 0.00 | 26 | 1005.0 |
| 20260503223010 | 73 | 248 | 0.9 | 7.8 | 0.00 | 0.00 | 0.00 | 26 | 1005.0 |
| 20260503222507 | 73 | 19 | 1.7 | 7.8 | 0.00 | 0.00 | 0.00 | 26 | 1005.1 |
| 20260503222006 | 74 | 310 | 1.7 | 7.0 | 0.00 | 0.00 | 0.00 | 27 | 1005.0 |
| 20260503221514 | 74 | 327 | 0.9 | 4.3 | 0.00 | 0.00 | 0.00 | 26 | 1005.0 |
| 20260503221008 | 74 | 119 | 0.9 | 5.2 | 0.00 | 0.00 | 0.00 | 26 | 1005.0 |
| 20260503220511 | 74 | 274 | 0.9 | 7.0 | 0.00 | 0.00 | 0.00 | 26 | 1004.9 |
| 20260503220016 | 74 | 284 | 1.7 | 9.6 | 0.00 | 0.00 | 0.00 | 26 | 1005.0 |
| 20260503215511 | 74 | 252 | 2.6 | 9.6 | 0.00 | 0.00 | 0.00 | 25 | 1005.1 |
| 20260503215007 | 74 | 352 | 1.7 | 7.0 | 0.00 | 0.00 | 0.00 | 25 | 1005.1 |
| 20260503214513 | 74 | 53 | 1.7 | 10.4 | 0.00 | 0.00 | 0.00 | 25 | 1005.0 |
| 20260503214007 | 75 | 236 | 1.7 | 10.4 | 0.00 | 0.00 | 0.00 | 26 | 1005.2 |
| 20260503213508 | 75 | 330 | 1.7 | 8.7 | 0.00 | 0.00 | 0.00 | 26 | 1005.0 |
| 20260503213025 | 75 | 321 | 0.9 | 10.4 | 0.00 | 0.00 | 0.00 | 26 | 1005.1 |
| 20260503212508 | 75 | 277 | 1.7 | 10.4 | 0.00 | 0.00 | 0.00 | 27 | 1005.1 |
| 20260503212009 | 75 | 342 | 0.9 | 10.4 | 0.00 | 0.00 | 0.00 | 26 | 1005.1 |
| 20260503211514 | 75 | 25 | 1.7 | 10.4 | 0.00 | 0.00 | 0.00 | 27 | 1005.2 |
| 20260503211005 | 75 | 315 | 0.9 | 8.7 | 0.00 | 0.00 | 0.00 | 27 | 1005.2 |
| 20260503210508 | 75 | 344 | 1.7 | 10.4 | 0.00 | 0.00 | 0.00 | 27 | 1005.1 |
| 20260503210025 | 75 | 317 | 2.6 | 10.4 | 0.00 | 0.00 | 0.00 | 27 | 1005.2 |
| 20260503205507 | 75 | 298 | 1.7 | 7.0 | 0.00 | 0.00 | 0.00 | 28 | 1005.3 |
| 20260503205005 | 75 | 24 | 2.6 | 7.0 | 0.00 | 0.00 | 0.00 | 28 | 1005.3 |
| 20260503204526 | 75 | 55 | 0.9 | 12.2 | 0.00 | 0.00 | 0.00 | 30 | 1005.4 |
| 20260503204003 | 75 | 266 | 1.7 | 12.2 | 0.00 | 0.00 | 0.00 | 29 | 1005.5 |
| 20260503203505 | 75 | 210 | 2.6 | 12.2 | 0.00 | 0.00 | 0.00 | 29 | 1005.6 |
| 20260503203009 | 75 | 55 | 1.7 | 7.8 | 0.00 | 0.00 | 0.00 | 30 | 1005.6 |
| 20260503202504 | 75 | 22 | 0.0 | 7.8 | 0.00 | 0.00 | 0.00 | 30 | 1005.6 |
| 20260503202004 | 75 | 352 | 1.7 | 7.0 | 0.00 | 0.00 | 0.00 | 31 | 1005.6 |
| 20260503201512 | 75 | 108 | 1.7 | 10.4 | 0.00 | 0.00 | 0.00 | 30 | 1005.5 |
| 20260503201007 | 75 | 315 | 3.5 | 10.4 | 0.00 | 0.00 | 0.00 | 28 | 1005.6 |
| 20260503200503 | 75 | 348 | 1.7 | 8.7 | 0.00 | 0.00 | 0.00 | 29 | 1005.7 |
| 20260503200012 | 75 | 248 | 1.7 | 6.1 | 0.00 | 0.00 | 0.00 | 32 | 1005.6 |
| 20260503195511 | 75 | 134 | 0.9 | 13.0 | 0.00 | 0.00 | 0.00 | 27 | 1005.6 |
| 20260503195005 | 75 | 250 | 1.7 | 13.0 | 0.00 | 0.00 | 0.00 | 27 | 1005.6 |
| 20260503194510 | 75 | 275 | 2.6 | 13.0 | 0.00 | 0.00 | 0.00 | 28 | 1005.6 |
| 20260503194002 | 75 | 346 | 1.7 | 10.4 | 0.00 | 0.00 | 0.00 | 28 | 1005.7 |
| 20260503193504 | 75 | 290 | 1.7 | 10.4 | 0.00 | 0.00 | 0.00 | 28 | 1005.8 |
| 20260503193001 | 75 | 334 | 2.6 | 10.4 | 0.00 | 0.00 | 0.00 | 29 | 1005.8 |
| 20260503192502 | 75 | 40 | 1.7 | 10.4 | 0.00 | 0.00 | 0.00 | 28 | 1005.8 |
| 20260503192008 | 75 | 352 | 2.6 | 8.7 | 0.00 | 0.00 | 0.00 | 30 | 1005.7 |
| 20260503191503 | 75 | 288 | 0.9 | 8.7 | 0.00 | 0.00 | 0.00 | 32 | 1005.7 |
| 20260503191006 | 75 | 332 | 2.6 | 8.7 | 0.00 | 0.00 | 0.00 | 31 | 1005.9 |
| 20260503190508 | 74 | 233 | 1.7 | 6.1 | 0.00 | 0.00 | 0.00 | 33 | 1005.8 |
| 20260503190011 | 74 | 5 | 1.7 | 6.1 | 0.00 | 0.00 | 0.00 | 32 | 1005.9 |
| 20260503185504 | 74 | 250 | 1.7 | 5.2 | 0.00 | 0.00 | 0.00 | 32 | 1005.8 |
| 20260503185007 | 73 | 54 | 1.7 | 7.8 | 0.00 | 0.00 | 0.00 | 32 | 1005.8 |
| 20260503184532 | 73 | 5 | 1.7 | 8.7 | 0.00 | 0.00 | 0.00 | 32 | 1005.8 |
| 20260503184004 | 73 | 297 | 2.6 | 10.4 | 0.00 | 0.00 | 0.00 | 32 | 1006.0 |
| 20260503183506 | 73 | 292 | 2.6 | 10.4 | 0.00 | 0.00 | 0.00 | 32 | 1006.1 |
| 20260503183017 | 73 | 310 | 2.6 | 9.6 | 0.00 | 0.00 | 0.00 | 36 | 1006.0 |
| 20260503182510 | 72 | 283 | 1.7 | 7.8 | 0.00 | 0.00 | 0.00 | 35 | 1005.9 |
| 20260503182004 | 72 | 318 | 2.6 | 7.0 | 0.00 | 0.00 | 0.00 | 36 | 1006.0 |
| 20260503181506 | 72 | 61 | 0.9 | 10.4 | 0.00 | 0.00 | 0.00 | 38 | 1006.1 |
| 20260503181005 | 72 | 38 | 2.6 | 10.4 | 0.00 | 0.00 | 0.00 | 37 | 1006.1 |
| 20260503180502 | 71 | 330 | 2.6 | 12.2 | 0.00 | 0.00 | 0.00 | 37 | 1006.2 |
| 20260503180018 | 71 | 57 | 2.6 | 12.2 | 0.00 | 0.00 | 0.00 | 36 | 1006.3 |
| 20260503175505 | 71 | 336 | 1.7 | 9.6 | 0.00 | 0.00 | 0.00 | 38 | 1006.2 |
| 20260503175010 | 71 | 18 | 3.5 | 9.6 | 0.00 | 0.00 | 0.00 | 38 | 1006.3 |
| 20260503174508 | 71 | 54 | 2.6 | 9.6 | 0.00 | 0.00 | 0.00 | 37 | 1006.2 |
| 20260503174008 | 71 | 352 | 2.6 | 9.6 | 0.00 | 0.00 | 0.00 | 37 | 1006.3 |
| 20260503173508 | 71 | 344 | 3.5 | 9.6 | 0.00 | 0.00 | 0.00 | 37 | 1006.4 |
| 20260503173020 | 70 | 277 | 2.6 | 10.4 | 0.00 | 0.00 | 0.00 | 37 | 1006.4 |
| 20260503172508 | 71 | 291 | 3.5 | 13.0 | 0.00 | 0.00 | 0.00 | 38 | 1006.4 |
| 20260503172006 | 71 | 257 | 4.3 | 13.0 | 0.00 | 0.00 | 0.00 | 37 | 1006.3 |
| 20260503171521 | 70 | 312 | 3.5 | 10.4 | 0.00 | 0.00 | 0.00 | 40 | 1006.4 |
| 20260503171004 | 70 | 246 | 3.5 | 10.4 | 0.00 | 0.00 | 0.00 | 39 | 1006.2 |
| 20260503170503 | 69 | 9 | 1.7 | 10.4 | 0.00 | 0.00 | 0.00 | 41 | 1006.2 |
| 20260503151013 | 64 | 222 | 0.9 | 3.5 | 0.00 | 0.00 | 0.00 | 43 | 1005.9 |
| 20260503150503 | 64 | 352 | 0.9 | 6.1 | 0.00 | 0.00 | 0.00 | 43 | 1005.9 |
| 20260503131003 | 53 | 246 | 2.6 | 8.7 | 0.00 | 0.00 | 0.00 | 50 | 1006.0 |
| 20260503130503 | 53 | 257 | 2.6 | 8.7 | 0.00 | 0.00 | 0.00 | 50 | 1006.0 |
| 20260503110502 | 53 | 163 | 1.7 | 9.6 | 0.00 | 0.00 | 0.00 | 50 | 1005.6 |
| 20260503090504 | 55 | 138 | 1.7 | 8.7 | 0.00 | 0.00 | 0.00 | 45 | 1006.9 |
| 20260503081518 | 54 | 217 | 1.7 | 8.7 | 0.00 | 0.00 | 0.00 | 49 | 1008.3 |
| 20260503081007 | 54 | 178 | 1.7 | 5.2 | 0.00 | 0.00 | 0.00 | 49 | 1008.6 |
| 20260503080507 | 54 | 237 | 1.7 | 5.2 | 0.00 | 0.00 | 0.00 | 49 | 1008.7 |
| 20260503072507 | 54 | 236 | 1.7 | 7.0 | 0.00 | 0.00 | 0.00 | 45 | 1008.7 |
| 20260503072007 | 54 | 250 | 1.7 | 8.7 | 0.00 | 0.00 | 0.00 | 45 | 1008.6 |
| 20260503071520 | 54 | 241 | 2.6 | 8.7 | 0.00 | 0.00 | 0.00 | 45 | 1008.6 |
| 20260503071006 | 54 | 259 | 3.5 | 8.7 | 0.00 | 0.00 | 0.00 | 45 | 1008.6 |
| 20260503070509 | 54 | 255 | 3.5 | 7.8 | 0.00 | 0.00 | 0.00 | 45 | 1008.7 |